KC5JIM Weather Reports


Display with metric or nautical units.
time (UTC)temp
F
wind
direction
speed
MPH
gust
MPH
rain 1hr
in
rain 24hr
in
rain mn
in
humidity
%
barometer
mb
20260902080332 78 354 0.0 2.0 0.00 0.00 0.00 65 1011.1
20260902075828 78 14 1.0 2.0 0.00 0.00 0.00 65 1010.9
20260902075324 77 5 1.0 2.0 0.00 0.00 0.00 67 1011.3
20260902075043 77 2 2.0 2.0 0.00 0.00 0.00 68 1011.2
20260902074316 77 255 0.0 2.0 0.00 0.00 0.00 68 1011.1
20260902073812 77 89 0.0 1.0 0.00 0.00 0.00 68 1011.0
20260902073532 77 337 1.0 2.0 0.00 0.00 0.00 69 1011.1
20260902072804 76 328 1.0 2.0 0.00 0.00 0.00 69 1011.2
20260902072300 76 326 0.0 2.0 0.00 0.00 0.00 70 1011.1
20260902071756 77 321 1.0 2.0 0.00 0.00 0.00 70 1011.0
20260902071513 77 62 0.0 1.0 0.00 0.00 0.00 69 1011.0
20260902070748 77 220 1.0 2.0 0.00 0.00 0.00 68 1010.9
20260902070244 77 283 1.0 2.0 0.00 0.00 0.00 67 1011.0
20260902065740 78 230 0.0 3.0 0.00 0.00 0.00 66 1010.9
20260902065236 78 241 0.0 2.0 0.00 0.00 0.00 67 1010.9
20260902064732 78 230 0.0 1.0 0.00 0.00 0.00 64 1010.7
20260902064229 79 309 0.0 1.0 0.00 0.00 0.00 65 1010.8
20260902063948 78 301 1.0 1.0 0.00 0.00 0.00 66 1010.8
20260902063221 78 255 0.0 2.0 0.00 0.00 0.00 66 1011.0
20260902062716 78 269 0.0 2.0 0.00 0.00 0.00 66 1010.9
20260902062437 78 321 0.0 1.0 0.00 0.00 0.00 66 1011.0
20260902061708 78 202 1.0 2.0 0.00 0.00 0.00 66 1010.8
20260902061205 78 260 0.0 2.0 0.00 0.00 0.00 66 1010.8
20260902060700 78 102 0.0 3.0 0.00 0.00 0.00 67 1011.1
20260902060419 78 324 0.0 2.0 0.00 0.00 0.00 67 1011.0
20260902060146 78 224 0.0 1.0 0.00 0.00 0.00 67 1010.9
20260902055148 78 164 0.0 1.0 0.00 0.00 0.00 67 1010.9
20260902054644 78 309 0.0 2.0 0.00 0.00 0.00 67 1011.1
20260902054400 79 285 0.0 3.0 0.00 0.00 0.00 65 1011.1
20260902053636 80 9 0.0 1.0 0.00 0.00 0.00 62 1010.9
20260902053132 80 135 0.0 1.0 0.00 0.00 0.00 62 1010.8
20260902052628 80 315 0.0 1.0 0.00 0.00 0.00 61 1010.8
20260902052616 80 283 0.0 1.0 0.00 0.00 0.00 60 1010.9
20260902051621 82 253 1.0 2.0 0.00 0.00 0.00 59 1011.0
20260902051116 82 33 1.0 2.0 0.00 0.00 0.00 56 1010.8
20260902050835 81 75 0.0 1.0 0.00 0.00 0.00 57 1011.1
20260902050108 81 76 0.0 2.0 0.00 0.00 0.00 58 1011.1
20260902045604 80 75 0.0 2.0 0.00 0.00 0.00 59 1011.0
20260902045101 80 323 0.0 3.0 0.00 0.00 0.00 61 1011.2
20260902044557 82 272 2.0 3.0 0.00 0.00 0.00 57 1011.0
20260902044053 83 279 1.0 2.0 0.00 0.00 0.00 56 1010.7
20260902043549 83 315 0.0 1.0 0.00 0.00 0.00 53 1011.0
20260902043045 83 44 0.0 2.0 0.00 0.00 0.00 54 1010.9
20260902042803 82 298 1.0 2.0 0.00 0.00 0.00 53 1010.7
20260902042037 83 311 0.0 2.0 0.00 0.00 0.00 55 1010.7
20260902041532 84 303 1.0 2.0 0.00 0.00 0.00 54 1010.8
20260902041028 85 122 1.0 2.0 0.00 0.00 0.00 49 1010.6
20260902040525 85 174 0.0 3.0 0.00 0.00 0.00 49 1010.5
20260902040020 85 99 3.0 5.0 0.00 0.00 0.00 48 1010.4
20260902035516 85 86 2.0 4.0 0.00 0.00 0.00 48 1010.4
20260902035012 85 100 3.0 4.0 0.00 0.00 0.00 48 1010.3
20260902034508 86 117 2.0 3.0 0.00 0.00 0.00 48 1010.3
20260902034004 86 94 3.0 6.0 0.00 0.00 0.00 48 1010.1
20260902033500 86 89 2.0 5.0 0.00 0.00 0.00 48 1010.5
20260902032956 86 85 3.0 5.0 0.00 0.00 0.00 48 1010.3
20260902032452 86 76 3.0 5.0 0.00 0.00 0.00 48 1010.0
20260902031948 86 83 2.0 4.0 0.00 0.00 0.00 48 1009.9
20260902031444 86 96 0.0 3.0 0.00 0.00 0.00 48 1009.7
20260902030940 86 92 3.0 5.0 0.00 0.00 0.00 47 1009.7
20260902030436 87 89 3.0 5.0 0.00 0.00 0.00 46 1009.6
20260902025932 87 83 4.0 6.0 0.00 0.00 0.00 46 1009.3
20260902025429 87 127 0.0 5.0 0.00 0.00 0.00 45 1009.3
20260902025147 87 142 2.0 9.0 0.00 0.00 0.00 45 1009.3
20260902024421 87 135 2.0 4.0 0.00 0.00 0.00 44 1009.2
20260902023917 87 96 3.0 7.0 0.00 0.00 0.00 44 1009.2
20260902023413 87 147 2.0 6.0 0.00 0.00 0.00 43 1009.3
20260902022909 87 153 4.0 6.0 0.00 0.00 0.00 43 1009.1
20260902022405 88 160 4.0 6.0 0.00 0.00 0.00 42 1008.8
20260902022354 88 133 9.0 10.0 0.00 0.00 0.00 42 1009.1
20260902021357 88 163 3.0 7.0 0.00 0.00 0.00 42 1008.9
20260902020853 88 126 4.0 6.0 0.00 0.00 0.00 42 1008.8
20260902020349 88 122 4.0 8.0 0.00 0.00 0.00 43 1009.0
20260902015844 88 137 3.0 7.0 0.00 0.00 0.00 43 1008.8
20260902015340 88 150 5.0 7.0 0.00 0.00 0.00 43 1008.9
20260902015057 89 150 6.0 10.0 0.00 0.00 0.00 43 1008.7
20260902014333 89 153 5.0 12.0 0.00 0.00 0.00 43 1008.8
20260902013828 89 144 9.0 12.0 0.00 0.00 0.00 43 1008.5
20260902013324 89 169 7.0 10.0 0.00 0.00 0.00 42 1008.7
20260902012820 90 126 5.0 11.0 0.00 0.00 0.00 42 1008.7
20260902012317 90 161 6.0 12.0 0.00 0.00 0.00 42 1008.8
20260902011813 90 112 8.0 12.0 0.00 0.00 0.00 41 1008.7
20260902011802 90 161 5.0 12.0 0.00 0.00 0.00 41 1008.9
20260902010804 90 146 11.0 12.0 0.00 0.00 0.00 41 1008.9
20260902010301 90 125 3.0 12.0 0.00 0.00 0.00 40 1008.6
20260902005756 90 151 13.0 13.0 0.00 0.00 0.00 39 1008.6
20260902005252 91 163 8.0 8.0 0.00 0.00 0.00 38 1008.5
20260902004749 91 176 4.0 13.0 0.00 0.00 0.00 38 1008.8
20260902004244 91 189 8.0 10.0 0.00 0.00 0.00 38 1008.8
20260902004002 90 163 4.0 10.0 0.00 0.00 0.00 38 1008.8
20260902003236 91 127 4.0 13.0 0.00 0.00 0.00 37 1008.7
20260902002732 91 165 6.0 11.0 0.00 0.00 0.00 38 1008.9
20260902002228 91 165 8.0 15.0 0.00 0.00 0.00 37 1008.8
20260902001944 91 163 9.0 17.0 0.00 0.00 0.00 37 1009.0
20260902001221 91 176 12.0 14.0 0.00 0.00 0.00 37 1008.8
20260902000716 91 139 4.0 11.0 0.00 0.00 0.00 36 1008.9
20260902000212 91 173 11.0 14.0 0.00 0.00 0.00 36 1009.0
20260901235708 91 152 10.0 14.0 0.00 0.00 0.00 36 1008.8
20260901235204 91 159 5.0 15.0 0.00 0.00 0.00 37 1009.0
20260901234921 91 150 8.0 12.0 0.00 0.00 0.00 37 1008.9
20260901234156 91 149 11.0 17.0 0.00 0.00 0.00 37 1009.0
20260901233652 92 173 10.0 11.0 0.00 0.00 0.00 37 1009.0
20260901233148 91 161 13.0 13.0 0.00 0.00 0.00 36 1009.0
20260901232644 92 124 6.0 12.0 0.00 0.00 0.00 37 1009.1
20260901232140 91 172 6.0 11.0 0.00 0.00 0.00 38 1009.0
20260901231636 91 156 9.0 14.0 0.00 0.00 0.00 38 1009.1
20260901231356 91 181 5.0 15.0 0.00 0.00 0.00 38 1009.3
20260901230628 90 147 4.0 8.0 0.00 0.00 0.00 37 1009.4
20260901230124 91 120 2.0 12.0 0.00 0.00 0.00 37 1009.3
20260901225621 91 148 3.0 8.0 0.00 0.00 0.00 36 1009.4
20260901225117 92 161 5.0 13.0 0.00 0.00 0.00 36 1009.4
20260901224613 91 184 7.0 13.0 0.00 0.00 0.00 37 1009.3
20260901224109 92 210 13.0 14.0 0.00 0.00 0.00 36 1009.6
20260901223605 91 190 4.0 8.0 0.00 0.00 0.00 35 1009.6
20260901223101 91 158 7.0 13.0 0.00 0.00 0.00 36 1009.5
20260901222817 90 244 3.0 9.0 0.00 0.00 0.00 37 1009.7
20260901222053 90 191 7.0 11.0 0.00 0.00 0.00 36 1009.7
20260901221549 91 193 11.0 17.0 0.00 0.00 0.00 36 1009.7
20260901221045 91 192 6.0 8.0 0.00 0.00 0.00 36 1009.8
20260901220541 90 101 4.0 11.0 0.00 0.00 0.00 37 1010.0
20260901220037 91 174 6.0 13.0 0.00 0.00 0.00 36 1009.9
20260901215533 90 199 2.0 8.0 0.00 0.00 0.00 37 1010.0
20260901215028 90 153 5.0 9.0 0.00 0.00 0.00 37 1010.0
20260901214524 91 198 8.0 11.0 0.00 0.00 0.00 37 1010.1
20260901214020 91 157 5.0 8.0 0.00 0.00 0.00 36 1009.9
20260901213741 90 215 4.0 11.0 0.00 0.00 0.00 37 1010.4
20260901213234 90 204 4.0 13.0 0.00 0.00 0.00 39 1010.2
20260901212508 91 125 4.0 13.0 0.00 0.00 0.00 38 1010.2
20260901212005 89 48 0.0 8.0 0.00 0.00 0.00 38 1010.7
20260901211500 89 103 9.0 11.0 0.00 0.00 0.00 38 1010.6
20260901211220 89 52 3.0 9.0 0.00 0.00 0.00 38 1010.9
20260901210452 90 202 3.0 13.0 0.00 0.00 0.00 38 1010.8
20260901205948 89 72 8.0 10.0 0.00 0.00 0.00 38 1011.0
20260901205444 89 152 12.0 18.0 0.00 0.00 0.00 38 1011.0
20260901204940 89 102 4.0 9.0 0.00 0.00 0.00 38 1011.0
20260901204436 89 169 4.0 14.0 0.00 0.00 0.00 39 1010.9
20260901203932 89 164 3.0 10.0 0.00 0.00 0.00 38 1011.2
20260901203650 89 169 9.0 12.0 0.00 0.00 0.00 38 1011.1
20260901202924 88 152 4.0 6.0 0.00 0.00 0.00 38 1011.1
20260901202420 88 181 3.0 5.0 0.00 0.00 0.00 38 1011.4
20260901202139 89 84 4.0 7.0 0.00 0.00 0.00 38 1011.3
20260901201412 88 98 7.0 8.0 0.00 0.00 0.00 39 1011.5
20260901201130 89 20 4.0 6.0 0.00 0.00 0.00 39 1011.6
20260901200405 88 0 2.0 8.0 0.00 0.00 0.00 40 1011.9
20260901195900 88 111 5.0 9.0 0.00 0.00 0.00 40 1011.7
20260901195619 87 173 2.0 4.0 0.00 0.00 0.00 40 1011.8
20260901194852 87 93 2.0 12.0 0.00 0.00 0.00 41 1012.0
20260901194609 88 118 3.0 9.0 0.00 0.00 0.00 40 1011.7
20260901193844 87 64 6.0 7.0 0.00 0.00 0.00 40 1012.0
20260901193340 87 159 3.0 11.0 0.00 0.00 0.00 41 1012.1
20260901192836 87 160 7.0 8.0 0.00 0.00 0.00 41 1012.2
20260901192332 87 213 4.0 10.0 0.00 0.00 0.00 41 1012.2
20260901192048 87 136 6.0 9.0 0.00 0.00 0.00 40 1012.0
20260901191546 87 166 3.0 7.0 0.00 0.00 0.00 41 1012.1
20260901190820 87 153 6.0 8.0 0.00 0.00 0.00 41 1012.1
20260901190316 85 100 2.0 4.0 0.00 0.00 0.00 41 1012.2
20260901185812 86 105 6.0 8.0 0.00 0.00 0.00 41 1012.3
20260901185308 85 154 4.0 10.0 0.00 0.00 0.00 42 1012.6
20260901184804 86 142 5.0 8.0 0.00 0.00 0.00 42 1012.6
20260901184300 86 80 4.0 8.0 0.00 0.00 0.00 42 1012.4
20260901183756 87 93 4.0 5.0 0.00 0.00 0.00 40 1012.7
20260901183252 87 289 7.0 7.0 0.00 0.00 0.00 41 1012.5
20260901182748 86 74 2.0 7.0 0.00 0.00 0.00 42 1012.8
20260901182244 86 83 2.0 8.0 0.00 0.00 0.00 42 1012.5
20260901181740 85 86 7.0 11.0 0.00 0.00 0.00 42 1012.7
20260901181236 85 95 4.0 7.0 0.00 0.00 0.00 43 1012.8
20260901180732 85 83 5.0 11.0 0.00 0.00 0.00 43 1012.8
20260901180228 84 13 0.0 4.0 0.00 0.00 0.00 42 1012.8
20260901175724 85 165 5.0 10.0 0.00 0.00 0.00 42 1012.9
20260901175220 83 238 0.0 2.0 0.00 0.00 0.00 42 1013.1
20260901174716 84 69 2.0 5.0 0.00 0.00 0.00 43 1012.8
20260901174212 84 164 4.0 6.0 0.00 0.00 0.00 43 1012.9
20260901173708 85 129 3.0 8.0 0.00 0.00 0.00 43 1012.8
20260901173424 84 152 4.0 5.0 0.00 0.00 0.00 42 1012.9
20260901172922 84 290 4.0 6.0 0.00 0.00 0.00 43 1012.9
20260901172420 83 139 2.0 4.0 0.00 0.00 0.00 44 1013.1
20260901171652 83 187 0.0 5.0 0.00 0.00 0.00 45 1013.2
20260901171148 84 131 6.0 8.0 0.00 0.00 0.00 45 1013.1
20260901170644 83 235 1.0 5.0 0.00 0.00 0.00 46 1013.2
20260901170141 82 203 1.0 3.0 0.00 0.00 0.00 46 1013.2
20260901165636 83 181 2.0 4.0 0.00 0.00 0.00 48 1013.2
20260901165132 82 95 2.0 3.0 0.00 0.00 0.00 46 1013.5
20260901164628 82 147 4.0 4.0 0.00 0.00 0.00 49 1013.2
20260901164124 82 158 2.0 4.0 0.00 0.00 0.00 50 1013.2
20260901163620 82 145 3.0 4.0 0.00 0.00 0.00 51 1013.0
20260901163116 82 234 3.0 4.0 0.00 0.00 0.00 54 1013.0
20260901162612 81 135 0.0 4.0 0.00 0.00 0.00 55 1013.1
20260901162108 81 171 2.0 4.0 0.00 0.00 0.00 55 1013.1
20260901161604 80 201 2.0 3.0 0.00 0.00 0.00 58 1013.4
20260901161101 81 73 1.0 4.0 0.00 0.00 0.00 55 1013.0
20260901160556 80 253 1.0 2.0 0.00 0.00 0.00 57 1013.1
20260901160052 80 198 3.0 4.0 0.00 0.00 0.00 58 1013.3
20260901155809 78 217 0.0 4.0 0.00 0.00 0.00 59 1013.5
20260901155044 80 256 1.0 4.0 0.00 0.00 0.00 58 1013.3
20260901154540 79 260 0.0 3.0 0.00 0.00 0.00 59 1013.4
20260901154036 80 319 0.0 2.0 0.00 0.00 0.00 63 1013.6
20260901153532 79 187 2.0 4.0 0.00 0.00 0.00 62 1013.3
20260901153028 78 258 2.0 4.0 0.00 0.00 0.00 63 1013.5
20260901152524 78 14 2.0 4.0 0.00 0.00 0.00 61 1013.4
20260901152020 78 287 2.0 4.0 0.00 0.00 0.00 62 1013.4
20260901151516 78 280 3.0 5.0 0.00 0.00 0.00 63 1013.5
20260901151234 77 226 1.0 4.0 0.00 0.00 0.00 65 1013.7
20260901150509 78 240 3.0 6.0 0.00 0.00 0.00 65 1013.6
20260901150004 77 252 0.0 2.0 0.00 0.00 0.00 66 1013.6
20260901145501 78 308 1.0 5.0 0.00 0.00 0.00 66 1013.4
20260901144957 76 161 1.0 2.0 0.00 0.00 0.00 70 1013.9
20260901144453 76 177 2.0 3.0 0.00 0.00 0.00 71 1013.7
20260901143949 75 84 1.0 2.0 0.00 0.00 0.00 73 1013.7
20260901143445 74 150 2.0 3.0 0.00 0.00 0.00 74 1013.7
20260901142941 74 275 1.0 4.0 0.00 0.00 0.00 78 1013.9
20260901142437 73 333 0.0 3.0 0.00 0.00 0.00 80 1013.8
20260901141933 73 272 4.0 6.0 0.00 0.00 0.00 81 1013.7
20260901141429 73 299 2.0 3.0 0.00 0.00 0.00 80 1013.6
20260901140925 72 260 1.0 2.0 0.00 0.00 0.00 81 1013.8
20260901140421 71 264 1.0 3.0 0.00 0.00 0.00 83 1013.7
20260901135917 71 251 1.0 4.0 0.00 0.00 0.00 83 1013.8
20260901135413 72 267 2.0 4.0 0.00 0.00 0.00 82 1013.7
20260901134909 73 261 0.0 3.0 0.00 0.00 0.00 80 1013.5
20260901134405 72 329 0.0 2.0 0.00 0.00 0.00 81 1013.4
20260901133901 72 269 0.0 2.0 0.00 0.00 0.00 82 1013.5
20260901133357 71 132 1.0 2.0 0.00 0.00 0.00 82 1013.7
20260901132853 71 85 3.0 5.0 0.00 0.00 0.00 83 1013.6
20260901132610 70 347 0.0 2.0 0.00 0.00 0.00 84 1013.5
20260901131845 70 87 2.0 4.0 0.00 0.00 0.00 85 1013.5
20260901131341 69 43 2.0 4.0 0.00 0.00 0.00 86 1013.2
20260901131059 69 24 2.0 6.0 0.00 0.00 0.00 87 1013.3
20260901130333 69 50 2.0 4.0 0.00 0.00 0.00 87 1013.2
20260901125829 69 40 2.0 4.0 0.00 0.00 0.00 88 1013.0
20260901125325 69 44 2.0 4.0 0.00 0.00 0.00 88 1013.1
20260901124821 69 26 1.0 5.0 0.00 0.00 0.00 89 1012.9
20260901124317 68 98 1.0 2.0 0.00 0.00 0.00 89 1013.0
20260901123813 69 32 0.0 3.0 0.00 0.00 0.00 89 1012.7
20260901123309 69 331 1.0 3.0 0.00 0.00 0.00 89 1012.6
20260901122805 69 46 0.0 3.0 0.00 0.00 0.00 89 1012.7
20260901122524 69 22 2.0 4.0 0.00 0.00 0.00 89 1012.8
20260901121757 69 28 2.0 4.0 0.00 0.00 0.00 90 1012.6
20260901121253 69 117 0.0 3.0 0.00 0.00 0.00 90 1012.6
20260901120749 69 43 2.0 4.0 0.00 0.00 0.00 90 1012.7
20260901120245 69 352 2.0 4.0 0.00 0.00 0.00 91 1012.6
20260901115741 69 339 2.0 3.0 0.00 0.00 0.00 91 1012.8
20260901115236 69 70 3.0 5.0 0.00 0.00 0.00 91 1012.8
20260901114732 68 17 3.0 4.0 0.00 0.00 0.00 91 1012.7
20260901114228 68 34 2.0 4.0 0.00 0.00 0.00 91 1012.8
20260901113724 68 0 2.0 5.0 0.00 0.00 0.00 92 1012.9
20260901113220 68 336 2.0 3.0 0.00 0.00 0.00 92 1013.1
20260901112716 68 339 0.0 2.0 0.00 0.00 0.00 92 1012.9
20260901112703 68 7 1.0 3.0 0.00 0.00 0.00 92 1013.2
20260901111708 68 24 1.0 4.0 0.00 0.00 0.00 92 1012.9
20260901111204 68 351 0.0 4.0 0.00 0.00 0.00 92 1012.9
20260901111152 68 5 0.0 2.0 0.00 0.00 0.00 92 1013.1
20260901110156 68 279 0.0 3.0 0.00 0.00 0.00 91 1013.2
20260901105652 68 213 1.0 3.0 0.00 0.00 0.00 91 1013.3
20260901105148 68 293 1.0 3.0 0.00 0.00 0.00 91 1013.2
20260901104644 68 59 2.0 3.0 0.00 0.00 0.00 91 1013.2
20260901104140 68 18 2.0 3.0 0.00 0.00 0.00 91 1013.1
20260901103636 68 79 1.0 2.0 0.00 0.00 0.00 91 1013.3
20260901103132 68 156 0.0 2.0 0.00 0.00 0.00 91 1013.3
20260901102850 68 84 1.0 3.0 0.00 0.00 0.00 90 1013.1
20260901102124 68 134 0.0 2.0 0.00 0.00 0.00 90 1013.0
20260901101621 68 44 0.0 1.0 0.00 0.00 0.00 90 1012.9
20260901101116 68 83 0.0 3.0 0.00 0.00 0.00 89 1013.0
20260901101101 69 315 0.0 1.0 0.00 0.00 0.00 89 1013.0
20260901100330 69 284 0.0 1.0 0.00 0.00 0.00 89 1013.0
20260901095605 69 309 0.0 2.0 0.00 0.00 0.00 88 1013.2
20260901095320 69 286 2.0 2.0 0.00 0.00 0.00 87 1013.1
20260901094557 70 333 0.0 2.0 0.00 0.00 0.00 86 1013.3
20260901094053 70 340 2.0 2.0 0.00 0.00 0.00 87 1013.3
20260901093549 70 32 0.0 2.0 0.00 0.00 0.00 87 1013.2
20260901093045 70 302 1.0 2.0 0.00 0.00 0.00 85 1013.1
20260901092541 70 83 2.0 2.0 0.00 0.00 0.00 86 1013.3
20260901092037 69 64 2.0 2.0 0.00 0.00 0.00 88 1013.3
20260901091533 69 76 0.0 2.0 0.00 0.00 0.00 89 1013.4
20260901091029 69 44 0.0 3.0 0.00 0.00 0.00 89 1013.3
20260901090746 69 351 1.0 1.0 0.00 0.00 0.00 89 1013.3
20260901090021 69 226 0.0 2.0 0.00 0.00 0.00 89 1013.3
20260901085737 70 201 0.0 3.0 0.00 0.00 0.00 88 1013.2
20260901085012 70 242 0.0 2.0 0.00 0.00 0.00 88 1013.2
20260901084508 71 283 0.0 2.0 0.00 0.00 0.00 87 1013.2
20260901084004 71 269 0.0 1.0 0.00 0.00 0.00 86 1013.2
20260901083500 71 135 0.0 0.0 0.00 0.00 0.00 85 1013.2
20260901082956 71 96 1.0 3.0 0.00 0.00 0.00 85 1013.3
20260901082452 71 43 0.0 2.0 0.00 0.00 0.00 85 1013.2
20260901081948 71 54 0.0 2.0 0.00 0.00 0.00 86 1013.3
20260901081444 71 56 0.0 2.0 0.00 0.00 0.00 86 1013.2
20260901080940 71 89 0.0 1.0 0.00 0.00 0.00 87 1013.5